Weather History for Port Aransas, TX

Change the Weather History Date:

Sunday, May 5, 2013

  Actual Average (KCRP) Record (KCRP)
Temperature  
Mean Temperature 70 °F 76 °F  
Max Temperature 79 °F 85 °F 96 °F (2003)
Min Temperature 62 °F 68 °F 50 °F (1970)
Degree Days  
Heating Degree Days 0 0  
Month to date heating degree days 0  
Since 1 July heating degree days 898  
Cooling Degree Days 6 11  
Month to date cooling degree days 55  
Year to date cooling degree days 483  
Growing Degree Days 20 (Base 50)    
Moisture  
Dew Point 56 °F    
Average Humidity 64    
Maximum Humidity 86    
Minimum Humidity 41    
Precipitation  
Precipitation 0.00 in 0.09 in 6.57 in (1926)
Month to date precipitation 0.42  
Year to date precipitation 7.62  
Snow  
Snow 0.00 in - - ()
Month to date snowfall  
Since 1 July snowfall  
Snow Depth -    
Sea Level Pressure  
Sea Level Pressure 30.02 in    
Wind  
Wind Speed 10 mph (SE)    
Max Wind Speed 16 mph    
Max Gust Speed 21 mph    
Visibility 10 miles    
Events      
T = Trace of Precipitation, MM = Missing Value Source: NWS Daily Summary

Daily Weather History Graph

Daily Weather History Graph

Search for Another Location

Airport:

Trip Planner

Search our weather history database for the weather conditions in past years. The results will help you decide how hot, cold, wet, or windy it might be!

Date:

Astronomy

May. 05, 2013 Rise Set
Actual Time 6:45 AM CDT 8:05 PM CDT
Civil Twilight 6:20 AM CDT 8:30 PM CDT
Nautical Twilight 5:50 AM CDT 8:59 PM CDT
Astronomical Twilight 5:19 AM CDT 9:30 PM CDT
Moon 3:55 AM CDT (5/5) 4:24 PM CDT (5/5)
Length of Visible Light 14h 09m
Length of Day
13h 19m
Waning Crescent, 18% of the Moon is Illuminated
May 5
Waning Crescent
May 9
New
May 17
First Quarter
May 24
Full
May 31
Last Quarter

Hourly Weather History & Observations

Time (CDT) Temp. Dew Point Humidity Pressure Visibility Wind Dir Wind Speed Gust Speed Precip Events Conditions
12:15 AM 66.9 °F 55.0 °F 66% 29.98 in 10.0 mi South 10.4 mph 17.3 mph N/A   Clear
12:35 AM 67.1 °F 55.2 °F 66% 29.98 in 10.0 mi South 11.5 mph - N/A   Clear
12:55 AM 67.1 °F 54.9 °F 65% 29.98 in 10.0 mi South 13.8 mph - N/A   Clear
1:15 AM 66.7 °F 54.7 °F 65% 29.98 in 10.0 mi South 10.4 mph - N/A   Clear
1:35 AM 66.6 °F 55.4 °F 67% 29.98 in 10.0 mi South 11.5 mph - N/A   Clear
1:55 AM 66.6 °F 55.6 °F 68% 29.97 in 10.0 mi South 10.4 mph 17.3 mph N/A   Clear
2:15 AM 66.4 °F 55.9 °F 69% 29.96 in 10.0 mi South 11.5 mph - N/A   Clear
2:35 AM 66.2 °F 56.1 °F 70% 29.96 in 10.0 mi South 12.7 mph - N/A   Clear
2:55 AM 66.2 °F 56.1 °F 70% 29.95 in 10.0 mi South 13.8 mph - N/A   Clear
3:15 AM 66.0 °F 56.5 °F 71% 29.96 in 10.0 mi South 11.5 mph - N/A   Clear
3:35 AM 66.2 °F 56.3 °F 70% 29.96 in 10.0 mi South 10.4 mph - N/A   Clear
3:55 AM 66.2 °F 56.8 °F 72% 29.96 in 10.0 mi SSW 11.5 mph - N/A   Clear
4:15 AM 66.0 °F 57.6 °F 74% 29.96 in 10.0 mi SSW 10.4 mph - N/A   Clear
4:35 AM 66.2 °F 57.4 °F 73% 29.96 in 10.0 mi SSW 9.2 mph - N/A   Clear
4:55 AM 65.3 °F 57.4 °F 76% 29.96 in 10.0 mi SW 5.8 mph - N/A   Clear
5:15 AM 63.0 °F 57.2 °F 81% 29.96 in 10.0 mi SW 4.6 mph - N/A   Clear
5:35 AM 62.8 °F 57.7 °F 84% 29.97 in 10.0 mi WSW 3.5 mph - N/A   Clear
5:55 AM 62.6 °F 58.5 °F 86% 29.97 in 10.0 mi WSW 4.6 mph - N/A   Clear
6:15 AM 62.8 °F 58.6 °F 86% 29.98 in 10.0 mi WSW 4.6 mph - N/A   Clear
6:35 AM 63.0 °F 58.3 °F 85% 29.98 in 10.0 mi WSW 4.6 mph - N/A   Clear
6:55 AM 63.0 °F 58.3 °F 85% 29.99 in 10.0 mi WSW 4.6 mph - N/A   Clear
7:15 AM 63.5 °F 58.5 °F 84% 30.01 in 10.0 mi WSW 5.8 mph - N/A   Clear
7:35 AM 64.6 °F 58.6 °F 81% 30.01 in 10.0 mi WSW 4.6 mph - N/A   Clear
7:55 AM 65.8 °F 59.2 °F 79% 30.02 in 10.0 mi WSW 4.6 mph - N/A   Clear
8:15 AM 67.3 °F 58.6 °F 74% 30.05 in 10.0 mi NNW 8.1 mph - N/A   Clear
8:35 AM 66.9 °F 58.5 °F 74% 30.05 in 10.0 mi North 10.4 mph - N/A   Clear
8:55 AM 67.3 °F 58.5 °F 73% 30.06 in 10.0 mi North 6.9 mph - N/A   Clear
9:15 AM 67.6 °F 58.1 °F 71% 30.06 in 10.0 mi North 10.4 mph - N/A   Clear
9:35 AM 67.6 °F 57.4 °F 70% 30.07 in 10.0 mi North 8.1 mph - N/A   Clear
9:55 AM 68.4 °F 56.8 °F 67% 30.08 in 10.0 mi NNW 10.4 mph - N/A   Clear
10:15 AM 68.9 °F 56.5 °F 65% 30.08 in 10.0 mi North 9.2 mph - N/A   Clear
10:35 AM 69.6 °F 55.9 °F 62% 30.08 in 10.0 mi North 10.4 mph - N/A   Clear
10:55 AM 70.3 °F 55.4 °F 59% 30.09 in 10.0 mi North 10.4 mph - N/A   Clear
11:15 AM 70.9 °F 55.4 °F 58% 30.09 in 10.0 mi North 10.4 mph - N/A   Clear
11:35 AM 71.6 °F 54.9 °F 55% 30.09 in 10.0 mi NNW 8.1 mph - N/A   Clear
11:55 AM 72.5 °F 54.9 °F 54% 30.09 in 10.0 mi North 8.1 mph - N/A   Clear
12:15 PM 73.8 °F 54.5 °F 51% 30.08 in 10.0 mi North 8.1 mph - N/A   Clear
12:35 PM 74.7 °F 54.3 °F 49% 30.07 in 10.0 mi NNW 10.4 mph - N/A   Clear
1:15 PM 77.4 °F 53.6 °F 44% 30.06 in - NNE 11.5 mph 18.4 mph N/A   Clear
1:35 PM 77.5 °F 53.1 °F 42% 30.05 in - NNE 9.2 mph 16.1 mph N/A   Clear
1:55 PM 77.2 °F 51.6 °F 41% 30.05 in - NNE 9.2 mph - N/A   Clear
2:15 PM 79.0 °F 53.8 °F 42% 30.05 in - East 16.1 mph 19.6 mph N/A   Clear
2:35 PM 73.8 °F 57.9 °F 58% 30.04 in 10.0 mi East 16.1 mph - N/A   Clear
2:55 PM 73.9 °F 54.7 °F 51% 30.04 in - East 15.0 mph 19.6 mph N/A   Clear
3:15 PM 74.5 °F 53.6 °F 48% 30.04 in - East 13.8 mph 20.7 mph N/A   Clear
3:35 PM 74.7 °F 52.2 °F 45% 30.03 in - East 16.1 mph 19.6 mph N/A   Clear
3:55 PM 73.9 °F 53.4 °F 49% 30.02 in 10.0 mi East 11.5 mph - N/A   Clear
4:15 PM 72.7 °F 55.8 °F 55% 30.01 in 10.0 mi East 13.8 mph - N/A   Clear
4:35 PM 72.5 °F 55.9 °F 56% 30.01 in 10.0 mi East 12.7 mph - N/A   Clear
4:55 PM 72.5 °F 55.4 °F 55% 30.00 in 10.0 mi ESE 11.5 mph - N/A   Clear
5:15 PM 72.0 °F 54.5 °F 54% 30.00 in 10.0 mi ESE 10.4 mph - N/A   Clear
5:35 PM 72.0 °F 54.9 °F 55% 30.00 in 10.0 mi ESE 11.5 mph - N/A   Clear
5:55 PM 71.8 °F 55.4 °F 56% 30.00 in 10.0 mi SE 10.4 mph - N/A   Clear
6:15 PM 71.2 °F 54.7 °F 56% 30.00 in 10.0 mi SE 8.1 mph - N/A   Clear
6:35 PM 71.1 °F 55.4 °F 58% 30.00 in 10.0 mi SE 6.9 mph - N/A   Clear
7:15 PM 70.3 °F 54.9 °F 58% 30.00 in 10.0 mi SE 6.9 mph - N/A   Clear
7:35 PM 69.8 °F 54.9 °F 59% 30.00 in 10.0 mi SE 6.9 mph - N/A   Clear
7:55 PM 69.1 °F 56.5 °F 64% 30.01 in 10.0 mi SE 8.1 mph - N/A   Clear
8:15 PM 68.5 °F 56.5 °F 65% 30.01 in 10.0 mi SE 10.4 mph - N/A   Clear
8:35 PM 68.4 °F 57.0 °F 67% 30.02 in 10.0 mi ESE 9.2 mph - N/A   Clear
8:55 PM 68.4 °F 56.5 °F 66% 30.03 in 10.0 mi ESE 8.1 mph - N/A   Clear
9:35 PM 68.0 °F 55.6 °F 64% 30.04 in 10.0 mi SE 5.8 mph - N/A   Clear
9:55 PM 68.4 °F 54.9 °F 62% 30.05 in 10.0 mi SE 6.9 mph - N/A   Clear
10:15 PM 68.9 °F 54.7 °F 60% 30.05 in 10.0 mi SE 5.8 mph - N/A   Clear
10:35 PM 68.9 °F 55.6 °F 62% 30.06 in 10.0 mi SE 4.6 mph - N/A   Clear
10:55 PM 68.5 °F 55.6 °F 63% 30.06 in 10.0 mi SE 4.6 mph - N/A   Clear
11:15 PM 68.5 °F 55.6 °F 63% 30.07 in 10.0 mi SE 4.6 mph - N/A   Clear
11:35 PM 68.2 °F 55.4 °F 64% 30.07 in 10.0 mi SE 4.6 mph - N/A   Clear
11:55 PM 68.2 °F 55.2 °F 63% 30.07 in 10.0 mi SE 4.6 mph - N/A   Clear